Driggs, ID

4:42 PM MDT on March 27, 2017 (GMT -0600)
Driggs

Weather History for KDIJ - April, 2014

Change the Weather History Date:

Tuesday, April 1, 2014

  Actual Average (KJAC) Record (KJAC)
Temperature  
Mean Temperature 23 °F -  
Max Temperature 38 °F 44 °F 60 °F (1978)
Min Temperature 8 °F 15 °F -10 °F (1970)
Degree Days  
Heating Degree Days 42    
Moisture  
Dew Point 22 °F    
Average Humidity 85    
Maximum Humidity 100    
Minimum Humidity 53    
Precipitation  
Precipitation 0.02 in - - ()
Sea Level Pressure  
Sea Level Pressure 29.73 in    
Wind  
Wind Speed 6 mph (SSE)    
Max Wind Speed 14 mph    
Max Gust Speed -    
Visibility 5 miles    
Events Fog , Snow    
Averages and records for this station are not official NWS values.
T = Trace of Precipitation, MM = Missing Value Source: NWS Daily Summary

Daily Weather History Graph

Daily Weather History Graph

Search for Another Location

Airport or City:

Trip Planner

Search our weather history database for the weather conditions in past years. The results will help you decide how hot, cold, wet, or windy it might be!

Date:

Astronomy

Apr. 01, 2014 Rise Set
Actual Time 7:05 AM MDT 7:51 PM MDT
Civil Twilight 6:36 AM MDT 8:20 PM MDT
Nautical Twilight 6:02 AM MDT 8:54 PM MDT
Astronomical Twilight 5:26 AM MDT 9:30 PM MDT
Moon 8:07 AM MDT (4/1) 10:22 PM MDT (4/1)
Length of Visible Light 13h 43m
Length of Day
12h 45m
Waxing Crescent, 5% of the Moon is Illuminated
Apr 1
Waxing Crescent
Apr 7
First Quarter
Apr 15
Full
Apr 22
Last Quarter
Apr 29
New

Hourly Weather History & Observations

Time (MDT) Temp. Windchill Dew Point Humidity Pressure Visibility Wind Dir Wind Speed Gust Speed Precip Events Conditions
12:56 AM 19.0 °F - 15.1 °F 85% 29.84 in 9.0 mi Calm Calm - N/A   Clear
1:56 AM 14.0 °F 5.1 °F 11.1 °F 88% 29.83 in 10.0 mi NE 5.8 mph - N/A   Clear
2:56 AM 11.1 °F 3.1 °F 7.2 °F 84% 29.83 in 9.0 mi ESE 4.6 mph - N/A   Partly Cloudy
3:56 AM 13.1 °F - 9.1 °F 84% 29.78 in 10.0 mi Calm Calm - N/A   Clear
4:56 AM 9.1 °F - 5.0 °F 83% 29.78 in 10.0 mi Calm Calm - N/A   Clear
5:56 AM 16.2 °F 9.0 °F 13.1 °F 88% 29.75 in 10.0 mi SSE 4.6 mph - N/A   Clear
6:56 AM 8.1 °F -0.5 °F 5.0 °F 87% 29.78 in 9.0 mi East 4.6 mph - N/A   Mostly Cloudy
7:56 AM 13.1 °F 4.0 °F 10.0 °F 88% 29.76 in 8.0 mi ENE 5.8 mph - N/A   Mostly Cloudy
8:56 AM 20.1 °F 15.2 °F 14.0 °F 77% 29.74 in 5.0 mi SSE 3.5 mph - N/A   Haze
9:56 AM 25.2 °F 19.5 °F 16.2 °F 69% 29.73 in 8.0 mi East 4.6 mph - N/A   Clear
10:56 AM 32.0 °F 27.5 °F 22.1 °F 67% 29.71 in 8.0 mi ENE 4.6 mph - N/A   Clear
11:56 AM 36.0 °F 33.3 °F 22.1 °F 57% 29.68 in 8.0 mi NE 3.5 mph - N/A   Clear
12:56 PM 34.0 °F 28.8 °F 21.0 °F 59% 29.69 in 10.0 mi West 5.8 mph - N/A   Clear
1:56 PM 38.8 °F 35.4 °F 23.0 °F 53% 29.68 in 8.0 mi North 4.6 mph - N/A   Clear
2:56 PM 38.8 °F 35.4 °F 25.2 °F 58% 29.68 in 8.0 mi NNE 4.6 mph - N/A   Clear
3:56 PM 36.9 °F 33.1 °F 26.1 °F 65% 29.68 in 8.0 mi NE 4.6 mph - N/A   Mostly Cloudy
4:56 PM 36.9 °F 34.3 °F 27.1 °F 68% 29.69 in 9.0 mi NNE 3.5 mph - N/A   Mostly Cloudy
5:56 PM 37.9 °F 35.5 °F 23.0 °F 55% 29.65 in 10.0 mi NNW 3.5 mph - N/A   Mostly Cloudy
6:56 PM 36.0 °F - 25.2 °F 65% 29.71 in 9.0 mi Calm Calm - N/A   Overcast
7:56 PM 32.0 °F 22.1 °F 30.0 °F 92% 29.72 in 1.8 mi South 13.8 mph - 0.00 in   Mostly Cloudy
8:05 PM 32.0 °F 22.5 °F 30.2 °F 93% 29.68 in 2.5 mi SSW 12.7 mph - 0.00 in   Overcast
8:17 PM 30.2 °F 19.8 °F 28.4 °F 93% 29.69 in 2.5 mi WSW 13.8 mph - 0.00 in Snow Light Snow
8:21 PM 30.2 °F 19.8 °F 28.4 °F 93% 29.69 in 3.0 mi WSW 13.8 mph - 0.00 in Snow Light Snow
8:28 PM 28.4 °F 18.5 °F 28.4 °F 100% 29.69 in 3.0 mi SW 11.5 mph - 0.00 in Snow Light Snow
8:35 PM 28.4 °F 18.5 °F 28.4 °F 100% 29.70 in 2.5 mi SW 11.5 mph - 0.00 in Snow Light Snow
8:38 PM 28.4 °F 18.5 °F 28.4 °F 100% 29.70 in 1.8 mi SW 11.5 mph - 0.00 in Snow Light Snow
8:42 PM 28.4 °F 18.5 °F 28.4 °F 100% 29.70 in 1.0 mi SSW 11.5 mph - 0.00 in Snow Light Snow
8:46 PM 28.4 °F 18.5 °F 28.4 °F 100% 29.71 in 0.5 mi SSW 11.5 mph - 0.00 in Fog , Snow Light Snow
8:56 PM 28.0 °F 17.5 °F 28.0 °F 100% 29.75 in 0.2 mi SSW 12.7 mph - 0.00 in Fog , Snow Light Snow
9:13 PM 28.4 °F 22.2 °F 28.4 °F 100% 29.72 in 0.5 mi SSW 5.8 mph - 0.00 in Fog , Snow Light Snow
9:45 PM 28.4 °F 21.2 °F 26.6 °F 93% 29.73 in 0.2 mi South 6.9 mph - 0.01 in Fog , Snow Snow
9:56 PM 27.1 °F 17.5 °F 27.1 °F 100% 29.75 in 0.5 mi South 10.4 mph - 0.01 in Fog , Snow Light Snow
10:43 PM 26.6 °F 16.2 °F 26.6 °F 100% 29.73 in 1.0 mi SSE 11.5 mph - 0.01 in Snow Light Snow
10:56 PM 27.1 °F 16.9 °F 26.1 °F 96% 29.72 in 1.5 mi SSE 11.5 mph - 0.01 in Snow Light Snow
11:03 PM 26.6 °F 17.5 °F 24.8 °F 93% 29.74 in 3.0 mi SSE 9.2 mph - 0.00 in Snow Light Snow
11:14 PM 26.6 °F 17.5 °F 24.8 °F 93% 29.74 in 3.0 mi SSE 9.2 mph - 0.00 in Snow Light Snow
11:22 PM 26.6 °F 16.8 °F 24.8 °F 93% 29.74 in 2.0 mi SSE 10.4 mph - 0.00 in Snow Light Snow
11:30 PM 26.6 °F 16.8 °F 24.8 °F 93% 29.74 in 1.8 mi SSE 10.4 mph - 0.00 in Snow Light Snow
11:41 PM 26.6 °F 16.2 °F 24.8 °F 93% 29.74 in 1.5 mi SSE 11.5 mph - 0.00 in Snow Light Snow
11:56 PM 26.1 °F 15.6 °F 25.2 °F 96% 29.72 in 1.5 mi SE 11.5 mph - 0.00 in Snow Light Snow